Printer-friendly version

IAU Minor Planet Center

Minor Planet Center

MPEC 2007-C62 : 2007 CT26

The following Minor Planet Electronic Circular may be linked-to from your own Web pages, but must not otherwise be redistributed electronically.


Read MPEC 2007-C61 Read MPEC 2007-C63


M.P.E.C. 2007-C62                                Issued 2007 Feb. 14, 00:47 UT

     The Minor Planet Electronic Circulars contain information on unusual
         minor planets and routine data on comets.  They are published
   on behalf of Commission 20 of the International Astronomical Union by the
          Minor Planet Center, Smithsonian Astrophysical Observatory,
                          Cambridge, MA 02138, U.S.A.

             Prepared using the Tamkin Foundation Computer Network

                              MPC@CFA.HARVARD.EDU
          URL http://cfa-www.harvard.edu/iau/mpc.html  ISSN 1523-6714

                                   2007 CT26

Observations:
     K07C26T* C2007 02 13.24761 07 01 50.05 +20 50 38.5          17.0   EC062704
     K07C26T  C2007 02 13.25888 07 01 54.44 +20 49 48.2          17.4   EC062704
     K07C26T  C2007 02 13.27001 07 01 58.83 +20 48 58.4          17.7   EC062704
     K07C26T  C2007 02 13.28134 07 02 03.32 +20 48 07.6          17.4   EC062704
     K07C26T  C2007 02 13.29271 07 02 07.81 +20 47 16.6          17.5   EC062704
     K07C26T  C2007 02 14.01256 07 07 10.06 +20 01 43.4          17.6 V EC062595
     K07C26T  C2007 02 14.01411 07 07 10.54 +20 01 38.2          18.3 V EC062595
     K07C26T  C2007 02 14.01979 07 07 12.44 +20 01 18.0          17.9 V EC062595

Observer details:
595 Farra d'Isonzo.  Observers L. Bittesini, G. Lombardi, E. Pettarin,
    F. Piani.  Measurers G. Lombardi, E. Pettarin.  0.40-m f/4.5 reflector
    + CCD.
704 Lincoln Laboratory ETS, New Mexico.  Observers M. Bezpalko, D. Torres,
    R. Kracke, G. Spitz, J. Kistler.  Measurers J. Stuart, S. Scruggs.  1.0-m
    f/2.15 reflector + CCD.

Orbital elements:
2007 CT26                                                Earth MOID = 0.0024 AU
Epoch 2007 Apr. 10.0 TT = JDT 2454200.5                 MPC
M 168.09307              (2000.0)            P               Q
n   1.24569432     Peri.   44.49127     +0.99348643     -0.10952628
a   0.8554508      Node   321.76387     +0.08515041     +0.89693957
e   0.3875203      Incl.    2.91219     +0.07572398     +0.42837297
P   0.79           H   23.2           G   0.15           U   9
Residuals in seconds of arc
070213 704  0.1+  0.1+    070213 704  0.2+  0.1-    070214 595  0.3-  0.1+
070213 704  0.2-  0.0     070213 704  0.1-  0.1+    070214 595  0.1+  0.1+
070213 704  0.0   0.1-    070214 595  0.1+  0.2-

Ephemeris:
2007 CT26                a,e,i = 0.86, 0.39, 3                   q = 0.5239
Date    TT    R. A. (2000) Decl.     Delta      r     Elong.  Phase     V
2007 02 09    03 59.89   +37 01.6    0.00773  0.989   105.1    74.5    15.2
2007 02 10    05 49.51   +29 51.3    0.0125   0.994   126.7    52.7    15.6
2007 02 11    06 29.22   +25 21.1    0.0183   1.000   134.8    44.5    16.2
2007 02 12    06 48.51   +22 47.0    0.0243   1.005   138.4    40.7    16.7
2007 02 13    06 59.81   +21 10.3    0.0304   1.011   140.1    38.8    17.2
2007 02 14    07 07.25   +20 04.6    0.0366   1.016   140.9    37.8    17.6
2007 02 15    07 12.55   +19 17.2    0.0429   1.021   141.2    37.3    17.9
2007 02 16    07 16.56   +18 41.4    0.0491   1.027   141.2    37.1    18.2
2007 02 17    07 19.73   +18 13.5    0.0554   1.032   140.9    37.1    18.5
2007 02 18    07 22.33   +17 51.1    0.0618   1.037   140.6    37.3    18.7
2007 02 19    07 24.54   +17 32.7    0.0681   1.042   140.1    37.5    19.0
2007 02 20    07 26.46   +17 17.3    0.0745   1.047   139.6    37.8    19.2
2007 02 21    07 28.16   +17 04.2    0.0809   1.051   139.0    38.1    19.4
2007 02 22    07 29.71   +16 52.8    0.0873   1.056   138.4    38.5    19.6
2007 02 23    07 31.15   +16 43.0    0.0938   1.061   137.7    38.9    19.7
2007 02 24    07 32.48   +16 34.2    0.100    1.065   137.1    39.3    19.9
2007 02 25    07 33.75   +16 26.4    0.107    1.070   136.4    39.7    20.1
2007 02 26    07 34.97   +16 19.4    0.113    1.074   135.7    40.1    20.2
2007 02 27    07 36.14   +16 13.0    0.120    1.078   135.0    40.5    20.4
2007 02 28    07 37.29   +16 07.1    0.126    1.082   134.3    41.0    20.5
2007 03 01    07 38.40   +16 01.7    0.133    1.086   133.5    41.4    20.6
2007 03 02    07 39.51   +15 56.7    0.140    1.091   132.8    41.8    20.7
2007 03 03    07 40.60   +15 52.0    0.146    1.094   132.1    42.2    20.9
2007 03 04    07 41.68   +15 47.6    0.153    1.098   131.4    42.7    21.0
2007 03 05    07 42.76   +15 43.5    0.159    1.102   130.6    43.1    21.1
2007 03 06    07 43.83   +15 39.5    0.166    1.106   129.9    43.5    21.2
2007 03 07    07 44.92   +15 35.7    0.173    1.109   129.2    43.9    21.3
2007 03 08    07 46.00   +15 32.1    0.180    1.113   128.4    44.3    21.4
2007 03 09    07 47.09   +15 28.5    0.186    1.116   127.7    44.7    21.5
2007 03 10    07 48.19   +15 25.1    0.193    1.120   127.0    45.1    21.6
2007 03 11    07 49.30   +15 21.8    0.200    1.123   126.3    45.5    21.7

Timothy B. Spahr             (C) Copyright 2007 MPC           M.P.E.C. 2007-C62

Read MPEC 2007-C61 Read MPEC 2007-C63


Our Web policy. Index to the CBAT/MPC/ICQ pages.


Valid HTML 4.01!